CZ-6A DEB

Satellite information

Favourite Embed

Satellite Type and Status

DEBRISIN ORBIT

Key statistics

Satellite CZ-6A DEB at a glance.

Uptime

1031

Days in orbit

Revolutions

≈ 14.2

Per day

Orbit

SSO

Sun Synchronous Orbit

Inclination

98.9

Latest

Satellite identification and parameters

Extended collection of information and parameters for CZ-6A DEB.

Object identification

Identified? True

Debris? True

Object name: CZ-6A DEB

International designator: 2022-151VE

Object number (NORAD): 55189

Object ID (CCSDS): 55189

Country: PEOPLES REPUBLIC OF CHINA (PRC)

Current information (Y/N): Y

RCS size: SMALL

Orbital parameters

Period: 101.624 minutes

Inclination: 98.8521 deg

SMA: 7213.692 km

Apoapsis: 872.186 km

Periapsis: 798.927 km

RAAN: 255.4387 deg

Eccentricy: 0.00507775

Argument of periapsis: 64.4159 deg

Mean anomaly: 296.2251 deg

Mean motion: 14.16988758 rev/day

Mean motion (dot): 0.00004005 rev/day2

B* drag term: 0.0019894217 1/REarth

Two-line elements (TLE)

Creation date: Sept. 5, 2025, 7:38 p.m.

Reference frame: TEME

Reference center: EARTH

Epoch: Sept. 5, 2025, 1:27 p.m. UTC

TLE line 0: 0 CZ-6A DEB

TLE line 1: 1 55189U 22151VE 25248.56109700 .00004005 00000-0 19894-2 0 9990

TLE line 2: 2 55189 98.8521 255.4387 0050778 64.4159 296.2251 14.16988758142295

Live tracking on map

Real-time ground track for satellite CZ-6A DEB.

In-orbit conjunctions

A list of the most updated potential collisions computed for object CZ-6A DEB.

Target Orbit TCA Probability of collision Miss distance Type
OSCAR 3 LEO 2024-12-27 05:20:39 0.0001528466 121.0 (m) PAYLOAD
METEOR 2-12 DEB LEO 2024-10-10 01:24:42 0.0001595077 744.0 (m) DEBRIS

Associated space launch

Chinese satellite reported for atmospheric/ocean/environmental/spatial parameter research purposes, details TBD.

CZ-6A DEB was lifted into orbit during the mission ‘Long March 6A | Yunhai 3’, on board a Long March 6A space rocket.

The launch took place on Nov. 11, 2022, 10:52 p.m. from Launch Complex 9A.

For more information about the launch, click the button.

Launch to space Long March 6A | Yunhai 3
Long March 6A | Yunhai 3

Agency: N/A

Status: Launch Successful

Launch date: Nov. 11, 2022, 10:52 p.m. UTC

Rocket: Long March 6A

Launch pad: Launch Complex 9A

Location: Taiyuan Satellite Launch Center, People's Republic of China

...

Latest news about this satellite

There are no fresh news available about this satellite. Check back as we update our databases every day.


Newsletter sign-up

Weekly statistics, charts and insights to help you stay on top of the space industry.